2019-305T00:22:16.688,   1,   5,   1,   120,   4,          0,     12.920,  47484.605,    41.313,    -7.844,    23.981,     5.648, 3, 2.400E+01,  1.50,  78,  2.926E-03,  2.875E-02, -9.999E+09, -9.999E+09, -9.999E+09, -9.999E+09, -9.999E+09, -9.999E+09, -9.999E+09, -9.999E+09, -9.999E+09, -9.999E+09, -9.999E+09, -9.999E+09, -9.999E+09, -9.999E+09, -9.999E+09, -9.999E+09, 255
2019-305T00:38:16.699,   1,   5,   1,   120,   4,          0,     12.920,  47484.605,    41.216,    -7.818,    23.980,   355.968, 3, 2.400E+01,  1.50,  78,  3.013E-03,  2.875E-02, -9.999E+09, -9.999E+09, -9.999E+09, -9.999E+09, -9.999E+09, -9.999E+09, -9.999E+09, -9.999E+09, -9.999E+09, -9.999E+09, -9.999E+09, -9.999E+09, -9.999E+09, -9.999E+09, -9.999E+09, -9.999E+09, 255
2019-305T01:04:16.717,   1,   5,   1,   120,   4,          0,     12.920,  47484.605,    41.057,    -7.775,    23.979,   340.238, 3, 2.400E+01,  1.50,  78,  5.256E-03,  2.875E-02, -9.999E+09, -9.999E+09, -9.999E+09, -9.999E+09, -9.999E+09, -9.999E+09, -9.999E+09, -9.999E+09, -9.999E+09, -9.999E+09, -9.999E+09, -9.999E+09, -9.999E+09, -9.999E+09, -9.999E+09, -9.999E+09, 255
2019-305T01:06:16.719,   1,   5,   1,   120,   4,          0,     12.920,  47484.605,    41.045,    -7.772,    23.979,   339.028, 3, 2.400E+01,  1.50,  78,  3.258E-03,  2.875E-02, -9.999E+09, -9.999E+09, -9.999E+09, -9.999E+09, -9.999E+09, -9.999E+09, -9.999E+09, -9.999E+09, -9.999E+09, -9.999E+09, -9.999E+09, -9.999E+09, -9.999E+09, -9.999E+09, -9.999E+09, -9.999E+09, 255
2019-305T01:12:16.723,   1,   5,   1,   120,   4,          0,     12.920,  47484.605,    41.008,    -7.762,    23.979,   335.397, 3, 2.400E+01,  1.50,  78,  3.247E-03,  2.875E-02, -9.999E+09, -9.999E+09, -9.999E+09, -9.999E+09, -9.999E+09, -9.999E+09, -9.999E+09, -9.999E+09, -9.999E+09, -9.999E+09, -9.999E+09, -9.999E+09, -9.999E+09, -9.999E+09, -9.999E+09, -9.999E+09, 255
2019-305T01:14:16.724,   1,   5,   1,   120,   4,          0,     12.920,  47484.605,    40.996,    -7.758,    23.979,   334.187, 3, 2.400E+01,  1.50,  78,  5.089E-03,  2.875E-02, -9.999E+09, -9.999E+09, -9.999E+09, -9.999E+09, -9.999E+09, -9.999E+09, -9.999E+09, -9.999E+09, -9.999E+09, -9.999E+09, -9.999E+09, -9.999E+09, -9.999E+09, -9.999E+09, -9.999E+09, -9.999E+09, 255
2019-305T01:16:16.726,   1,   5,   1,   120,   4,          0,     12.920,  47484.605,    40.984,    -7.755,    23.979,   332.977, 3, 2.400E+01,  1.50,  78,  7.561E-03,  2.875E-02, -9.999E+09, -9.999E+09, -9.999E+09, -9.999E+09, -9.999E+09, -9.999E+09, -9.999E+09, -9.999E+09, -9.999E+09, -9.999E+09, -9.999E+09, -9.999E+09, -9.999E+09, -9.999E+09, -9.999E+09, -9.999E+09, 255
2019-305T01:18:16.727,   1,   5,   1,   120,   4,          0,     12.920,  47484.605,    40.972,    -7.752,    23.979,   331.767, 3, 2.400E+01,  1.50,  78,  1.231E-02,  2.875E-02, -9.999E+09, -9.999E+09, -9.999E+09, -9.999E+09, -9.999E+09, -9.999E+09, -9.999E+09, -9.999E+09, -9.999E+09, -9.999E+09, -9.999E+09, -9.999E+09, -9.999E+09, -9.999E+09, -9.999E+09, -9.999E+09, 255
2019-305T01:20:16.728,   1,   5,   1,   120,   4,          0,     12.920,  47484.605,    40.959,    -7.748,    23.978,   330.557, 3, 2.400E+01,  1.50,  78,  5.489E-03,  2.875E-02, -9.999E+09, -9.999E+09, -9.999E+09, -9.999E+09, -9.999E+09, -9.999E+09, -9.999E+09, -9.999E+09, -9.999E+09, -9.999E+09, -9.999E+09, -9.999E+09, -9.999E+09, -9.999E+09, -9.999E+09, -9.999E+09, 255
2019-305T01:22:16.730,   1,   5,   1,   120,   4,          0,     12.920,  47484.605,    40.947,    -7.745,    23.978,   329.347, 3, 2.400E+01,  1.50,  78,  6.234E-03,  2.875E-02, -9.999E+09, -9.999E+09, -9.999E+09, -9.999E+09, -9.999E+09, -9.999E+09, -9.999E+09, -9.999E+09, -9.999E+09, -9.999E+09, -9.999E+09, -9.999E+09, -9.999E+09, -9.999E+09, -9.999E+09, -9.999E+09, 255
2019-305T01:24:16.731,   1,   5,   1,   120,   4,          0,     12.920,  47484.605,    40.935,    -7.742,    23.978,   328.137, 3, 2.400E+01,  1.50,  78,  4.918E-03,  2.875E-02, -9.999E+09, -9.999E+09, -9.999E+09, -9.999E+09, -9.999E+09, -9.999E+09, -9.999E+09, -9.999E+09, -9.999E+09, -9.999E+09, -9.999E+09, -9.999E+09, -9.999E+09, -9.999E+09, -9.999E+09, -9.999E+09, 255
2019-305T01:26:16.733,   1,   5,   1,   120,   4,          0,     12.920,  47484.605,    40.923,    -7.738,    23.978,   326.927, 3, 2.400E+01,  1.50,  78,  7.539E-03,  2.875E-02, -9.999E+09, -9.999E+09, -9.999E+09, -9.999E+09, -9.999E+09, -9.999E+09, -9.999E+09, -9.999E+09, -9.999E+09, -9.999E+09, -9.999E+09, -9.999E+09, -9.999E+09, -9.999E+09, -9.999E+09, -9.999E+09, 255
2019-305T01:28:16.734,   1,   5,   1,   120,   4,          0,     12.920,  47484.605,    40.910,    -7.735,    23.978,   325.717, 3, 2.400E+01,  1.50,  78,  7.060E-03,  2.875E-02, -9.999E+09, -9.999E+09, -9.999E+09, -9.999E+09, -9.999E+09, -9.999E+09, -9.999E+09, -9.999E+09, -9.999E+09, -9.999E+09, -9.999E+09, -9.999E+09, -9.999E+09, -9.999E+09, -9.999E+09, -9.999E+09, 255
2019-305T01:30:16.735,   1,   5,   1,   120,   4,          0,     12.920,  47484.605,    40.898,    -7.732,    23.978,   324.507, 3, 2.400E+01,  1.50,  78,  6.492E-03,  2.875E-02, -9.999E+09, -9.999E+09, -9.999E+09, -9.999E+09, -9.999E+09, -9.999E+09, -9.999E+09, -9.999E+09, -9.999E+09, -9.999E+09, -9.999E+09, -9.999E+09, -9.999E+09, -9.999E+09, -9.999E+09, -9.999E+09, 255
2019-305T01:32:16.737,   1,   5,   1,   120,   4,          0,     12.920,  47484.605,    40.886,    -7.728,    23.978,   323.297, 3, 2.400E+01,  1.50,  78,  8.381E-03,  2.875E-02, -9.999E+09, -9.999E+09, -9.999E+09, -9.999E+09, -9.999E+09, -9.999E+09, -9.999E+09, -9.999E+09, -9.999E+09, -9.999E+09, -9.999E+09, -9.999E+09, -9.999E+09, -9.999E+09, -9.999E+09, -9.999E+09, 255
2019-305T01:34:16.738,   1,   5,   1,   120,   4,          0,     12.920,  47484.605,    40.874,    -7.725,    23.978,   322.087, 3, 2.400E+01,  1.50,  78,  5.597E-03,  2.875E-02, -9.999E+09, -9.999E+09, -9.999E+09, -9.999E+09, -9.999E+09, -9.999E+09, -9.999E+09, -9.999E+09, -9.999E+09, -9.999E+09, -9.999E+09, -9.999E+09, -9.999E+09, -9.999E+09, -9.999E+09, -9.999E+09, 255
2019-305T01:36:16.740,   1,   5,   1,   120,   4,          0,     12.920,  47484.605,    40.861,    -7.722,    23.978,   320.877, 3, 2.400E+01,  1.50,  78,  5.386E-03,  2.875E-02, -9.999E+09, -9.999E+09, -9.999E+09, -9.999E+09, -9.999E+09, -9.999E+09, -9.999E+09, -9.999E+09, -9.999E+09, -9.999E+09, -9.999E+09, -9.999E+09, -9.999E+09, -9.999E+09, -9.999E+09, -9.999E+09, 255
2019-305T01:38:16.741,   1,   5,   1,   120,   4,          0,     12.920,  47484.605,    40.849,    -7.718,    23.978,   319.667, 3, 2.400E+01,  1.50,  78,  5.779E-03,  2.875E-02, -9.999E+09, -9.999E+09, -9.999E+09, -9.999E+09, -9.999E+09, -9.999E+09, -9.999E+09, -9.999E+09, -9.999E+09, -9.999E+09, -9.999E+09, -9.999E+09, -9.999E+09, -9.999E+09, -9.999E+09, -9.999E+09, 255
2019-305T01:40:16.742,   1,   5,   1,   120,   4,          0,     12.920,  47484.605,    40.837,    -7.715,    23.978,   318.457, 3, 2.400E+01,  1.50,  78,  6.033E-03,  2.875E-02, -9.999E+09, -9.999E+09, -9.999E+09, -9.999E+09, -9.999E+09, -9.999E+09, -9.999E+09, -9.999E+09, -9.999E+09, -9.999E+09, -9.999E+09, -9.999E+09, -9.999E+09, -9.999E+09, -9.999E+09, -9.999E+09, 255
2019-305T01:42:16.744,   1,   5,   1,   120,   4,          0,     12.920,  47484.605,    40.825,    -7.712,    23.978,   317.247, 3, 2.400E+01,  1.50,  78,  4.618E-03,  2.875E-02, -9.999E+09, -9.999E+09, -9.999E+09, -9.999E+09, -9.999E+09, -9.999E+09, -9.999E+09, -9.999E+09, -9.999E+09, -9.999E+09, -9.999E+09, -9.999E+09, -9.999E+09, -9.999E+09, -9.999E+09, -9.999E+09, 255
2019-305T01:44:16.745,   1,   5,   1,   120,   4,          0,     12.920,  47484.605,    40.812,    -7.708,    23.978,   316.037, 3, 2.400E+01,  1.50,  78,  7.820E-03,  2.875E-02, -9.999E+09, -9.999E+09, -9.999E+09, -9.999E+09, -9.999E+09, -9.999E+09, -9.999E+09, -9.999E+09, -9.999E+09, -9.999E+09, -9.999E+09, -9.999E+09, -9.999E+09, -9.999E+09, -9.999E+09, -9.999E+09, 255
2019-305T01:46:16.747,   1,   5,   1,   120,   4,          0,     12.920,  47484.605,    40.800,    -7.705,    23.978,   314.827, 3, 2.400E+01,  1.50,  78,  5.819E-03,  2.875E-02, -9.999E+09, -9.999E+09, -9.999E+09, -9.999E+09, -9.999E+09, -9.999E+09, -9.999E+09, -9.999E+09, -9.999E+09, -9.999E+09, -9.999E+09, -9.999E+09, -9.999E+09, -9.999E+09, -9.999E+09, -9.999E+09, 255
2019-305T01:48:16.748,   1,   5,   1,   120,   4,          0,     12.920,  47484.605,    40.788,    -7.702,    23.978,   313.617, 3, 2.400E+01,  1.50,  78,  7.591E-03,  2.875E-02, -9.999E+09, -9.999E+09, -9.999E+09, -9.999E+09, -9.999E+09, -9.999E+09, -9.999E+09, -9.999E+09, -9.999E+09, -9.999E+09, -9.999E+09, -9.999E+09, -9.999E+09, -9.999E+09, -9.999E+09, -9.999E+09, 255
2019-305T01:50:16.749,   1,   5,   1,   120,   4,          0,     12.920,  47484.605,    40.776,    -7.698,    23.978,   312.406, 3, 2.400E+01,  1.50,  78,  5.825E-03,  2.875E-02, -9.999E+09, -9.999E+09, -9.999E+09, -9.999E+09, -9.999E+09, -9.999E+09, -9.999E+09, -9.999E+09, -9.999E+09, -9.999E+09, -9.999E+09, -9.999E+09, -9.999E+09, -9.999E+09, -9.999E+09, -9.999E+09, 255
2019-305T01:52:16.751,   1,   5,   1,   120,   4,          0,     12.920,  47484.605,    40.763,    -7.695,    23.977,   311.196, 3, 2.400E+01,  1.50,  78,  3.870E-03,  2.875E-02, -9.999E+09, -9.999E+09, -9.999E+09, -9.999E+09, -9.999E+09, -9.999E+09, -9.999E+09, -9.999E+09, -9.999E+09, -9.999E+09, -9.999E+09, -9.999E+09, -9.999E+09, -9.999E+09, -9.999E+09, -9.999E+09, 255
2019-305T01:56:16.753,   1,   5,   1,   120,   4,          0,     12.920,  47484.605,    40.739,    -7.688,    23.977,   308.776, 3, 2.400E+01,  1.50,  78,  5.029E-03,  2.875E-02, -9.999E+09, -9.999E+09, -9.999E+09, -9.999E+09, -9.999E+09, -9.999E+09, -9.999E+09, -9.999E+09, -9.999E+09, -9.999E+09, -9.999E+09, -9.999E+09, -9.999E+09, -9.999E+09, -9.999E+09, -9.999E+09, 255
2019-305T01:58:16.755,   1,   5,   1,   120,   4,          0,     12.920,  47484.605,    40.726,    -7.685,    23.977,   307.566, 3, 2.400E+01,  1.50,  78,  5.291E-03,  2.875E-02, -9.999E+09, -9.999E+09, -9.999E+09, -9.999E+09, -9.999E+09, -9.999E+09, -9.999E+09, -9.999E+09, -9.999E+09, -9.999E+09, -9.999E+09, -9.999E+09, -9.999E+09, -9.999E+09, -9.999E+09, -9.999E+09, 255
2019-305T02:00:16.756,   1,   5,   1,   120,   4,          0,     12.920,  47484.605,    40.714,    -7.682,    23.977,   306.356, 3, 2.400E+01,  1.50,  78,  4.364E-03,  2.875E-02, -9.999E+09, -9.999E+09, -9.999E+09, -9.999E+09, -9.999E+09, -9.999E+09, -9.999E+09, -9.999E+09, -9.999E+09, -9.999E+09, -9.999E+09, -9.999E+09, -9.999E+09, -9.999E+09, -9.999E+09, -9.999E+09, 255
2019-305T02:02:16.758,   1,   5,   1,   120,   4,          0,     12.920,  47484.605,    40.702,    -7.678,    23.977,   305.146, 3, 2.400E+01,  1.50,  78,  6.473E-03,  2.875E-02, -9.999E+09, -9.999E+09, -9.999E+09, -9.999E+09, -9.999E+09, -9.999E+09, -9.999E+09, -9.999E+09, -9.999E+09, -9.999E+09, -9.999E+09, -9.999E+09, -9.999E+09, -9.999E+09, -9.999E+09, -9.999E+09, 255
2019-305T02:04:16.759,   1,   5,   1,   120,   4,          0,     12.920,  47484.605,    40.690,    -7.675,    23.977,   303.936, 3, 2.400E+01,  1.50,  78,  7.416E-03,  2.875E-02, -9.999E+09, -9.999E+09, -9.999E+09, -9.999E+09, -9.999E+09, -9.999E+09, -9.999E+09, -9.999E+09, -9.999E+09, -9.999E+09, -9.999E+09, -9.999E+09, -9.999E+09, -9.999E+09, -9.999E+09, -9.999E+09, 255
2019-305T02:06:16.760,   1,   5,   1,   120,   4,          0,     12.920,  47484.605,    40.677,    -7.671,    23.977,   302.726, 3, 2.400E+01,  1.50,  78,  1.239E-02,  2.875E-02, -9.999E+09, -9.999E+09, -9.999E+09, -9.999E+09, -9.999E+09, -9.999E+09, -9.999E+09, -9.999E+09, -9.999E+09, -9.999E+09, -9.999E+09, -9.999E+09, -9.999E+09, -9.999E+09, -9.999E+09, -9.999E+09, 255
2019-305T02:08:16.762,   1,   5,   1,   120,   4,          0,     12.920,  47484.605,    40.665,    -7.668,    23.977,   301.516, 3, 2.400E+01,  1.50,  78,  1.270E-02,  2.875E-02, -9.999E+09, -9.999E+09, -9.999E+09, -9.999E+09, -9.999E+09, -9.999E+09, -9.999E+09, -9.999E+09, -9.999E+09, -9.999E+09, -9.999E+09, -9.999E+09, -9.999E+09, -9.999E+09, -9.999E+09, -9.999E+09, 255
2019-305T02:10:16.763,   1,   5,   1,   120,   4,          0,     12.920,  47484.605,    40.653,    -7.665,    23.977,   300.306, 3, 2.400E+01,  1.50,  78,  1.986E-02,  2.875E-02, -9.999E+09, -9.999E+09, -9.999E+09, -9.999E+09, -9.999E+09, -9.999E+09, -9.999E+09, -9.999E+09, -9.999E+09, -9.999E+09, -9.999E+09, -9.999E+09, -9.999E+09, -9.999E+09, -9.999E+09, -9.999E+09, 255
2019-305T02:12:16.764,   1,   5,   1,   120,   4,          0,     12.920,  47484.605,    40.640,    -7.661,    23.977,   299.096, 3, 2.400E+01,  1.50,  78,  1.446E-02,  2.875E-02, -9.999E+09, -9.999E+09, -9.999E+09, -9.999E+09, -9.999E+09, -9.999E+09, -9.999E+09, -9.999E+09, -9.999E+09, -9.999E+09, -9.999E+09, -9.999E+09, -9.999E+09, -9.999E+09, -9.999E+09, -9.999E+09, 255
2019-305T02:14:16.766,   1,   5,   1,   120,   4,          0,     12.920,  47484.605,    40.628,    -7.658,    23.976,   297.886, 3, 2.400E+01,  1.50,  78,  1.682E-02,  2.875E-02, -9.999E+09, -9.999E+09, -9.999E+09, -9.999E+09, -9.999E+09, -9.999E+09, -9.999E+09, -9.999E+09, -9.999E+09, -9.999E+09, -9.999E+09, -9.999E+09, -9.999E+09, -9.999E+09, -9.999E+09, -9.999E+09, 255
2019-305T02:16:16.767,   1,   5,   1,   120,   4,          0,     12.920,  47484.605,    40.616,    -7.655,    23.976,   296.676, 3, 2.400E+01,  1.50,  78,  1.187E-02,  2.875E-02, -9.999E+09, -9.999E+09, -9.999E+09, -9.999E+09, -9.999E+09, -9.999E+09, -9.999E+09, -9.999E+09, -9.999E+09, -9.999E+09, -9.999E+09, -9.999E+09, -9.999E+09, -9.999E+09, -9.999E+09, -9.999E+09, 255
2019-305T02:18:16.769,   1,   5,   1,   120,   4,          0,     12.920,  47484.605,    40.603,    -7.651,    23.976,   295.466, 3, 2.400E+01,  1.50,  78,  1.381E-02,  2.875E-02, -9.999E+09, -9.999E+09, -9.999E+09, -9.999E+09, -9.999E+09, -9.999E+09, -9.999E+09, -9.999E+09, -9.999E+09, -9.999E+09, -9.999E+09, -9.999E+09, -9.999E+09, -9.999E+09, -9.999E+09, -9.999E+09, 255
2019-305T02:20:16.770,   1,   5,   1,   120,   4,          0,     12.920,  47484.605,    40.591,    -7.648,    23.976,   294.256, 3, 2.400E+01,  1.50,  78,  1.342E-02,  2.875E-02, -9.999E+09, -9.999E+09, -9.999E+09, -9.999E+09, -9.999E+09, -9.999E+09, -9.999E+09, -9.999E+09, -9.999E+09, -9.999E+09, -9.999E+09, -9.999E+09, -9.999E+09, -9.999E+09, -9.999E+09, -9.999E+09, 255
2019-305T02:22:16.771,   1,   5,   1,   120,   4,          0,     12.920,  47484.605,    40.579,    -7.644,    23.976,   293.046, 3, 2.400E+01,  1.50,  78,  1.903E-02,  2.875E-02, -9.999E+09, -9.999E+09, -9.999E+09, -9.999E+09, -9.999E+09, -9.999E+09, -9.999E+09, -9.999E+09, -9.999E+09, -9.999E+09, -9.999E+09, -9.999E+09, -9.999E+09, -9.999E+09, -9.999E+09, -9.999E+09, 255
2019-305T02:24:16.773,   1,   5,   1,   120,   4,          0,     12.920,  47484.605,    40.567,    -7.641,    23.976,   291.835, 3, 2.400E+01,  1.50,  78,  1.754E-02,  2.875E-02, -9.999E+09, -9.999E+09, -9.999E+09, -9.999E+09, -9.999E+09, -9.999E+09, -9.999E+09, -9.999E+09, -9.999E+09, -9.999E+09, -9.999E+09, -9.999E+09, -9.999E+09, -9.999E+09, -9.999E+09, -9.999E+09, 255
2019-305T02:26:16.774,   1,   5,   1,   120,   4,          0,     12.920,  47484.605,    40.554,    -7.638,    23.976,   290.625, 3, 2.400E+01,  1.50,  78,  1.892E-02,  2.875E-02, -9.999E+09, -9.999E+09, -9.999E+09, -9.999E+09, -9.999E+09, -9.999E+09, -9.999E+09, -9.999E+09, -9.999E+09, -9.999E+09, -9.999E+09, -9.999E+09, -9.999E+09, -9.999E+09, -9.999E+09, -9.999E+09, 255
2019-305T02:28:16.776,   1,   5,   1,   120,   4,          0,     12.920,  47484.605,    40.542,    -7.634,    23.976,   289.415, 3, 2.400E+01,  1.50,  78,  2.051E-02,  2.875E-02, -9.999E+09, -9.999E+09, -9.999E+09, -9.999E+09, -9.999E+09, -9.999E+09, -9.999E+09, -9.999E+09, -9.999E+09, -9.999E+09, -9.999E+09, -9.999E+09, -9.999E+09, -9.999E+09, -9.999E+09, -9.999E+09, 255
2019-305T02:30:16.777,   1,   5,   1,   120,   4,          0,     12.920,  47484.605,    40.530,    -7.631,    23.976,   288.205, 3, 2.400E+01,  1.50,  78,  2.385E-02,  2.875E-02, -9.999E+09, -9.999E+09, -9.999E+09, -9.999E+09, -9.999E+09, -9.999E+09, -9.999E+09, -9.999E+09, -9.999E+09, -9.999E+09, -9.999E+09, -9.999E+09, -9.999E+09, -9.999E+09, -9.999E+09, -9.999E+09, 255
2019-305T02:32:16.778,   1,   5,   1,   120,   4,          0,     12.920,  47484.605,    40.517,    -7.627,    23.976,   286.995, 3, 2.400E+01,  1.50,  78,  2.102E-02,  2.875E-02, -9.999E+09, -9.999E+09, -9.999E+09, -9.999E+09, -9.999E+09, -9.999E+09, -9.999E+09, -9.999E+09, -9.999E+09, -9.999E+09, -9.999E+09, -9.999E+09, -9.999E+09, -9.999E+09, -9.999E+09, -9.999E+09, 255
2019-305T02:34:16.780,   1,   5,   1,   120,   4,          0,     12.920,  47484.605,    40.505,    -7.624,    23.976,   285.785, 3, 2.400E+01,  1.50,  78,  1.593E-02,  2.875E-02, -9.999E+09, -9.999E+09, -9.999E+09, -9.999E+09, -9.999E+09, -9.999E+09, -9.999E+09, -9.999E+09, -9.999E+09, -9.999E+09, -9.999E+09, -9.999E+09, -9.999E+09, -9.999E+09, -9.999E+09, -9.999E+09, 255
2019-305T02:36:16.781,   1,   5,   1,   120,   4,          0,     12.920,  47484.605,    40.493,    -7.621,    23.976,   284.575, 3, 2.400E+01,  1.50,  78,  1.473E-02,  2.875E-02, -9.999E+09, -9.999E+09, -9.999E+09, -9.999E+09, -9.999E+09, -9.999E+09, -9.999E+09, -9.999E+09, -9.999E+09, -9.999E+09, -9.999E+09, -9.999E+09, -9.999E+09, -9.999E+09, -9.999E+09, -9.999E+09, 255
2019-305T02:38:16.783,   1,   5,   1,   120,   4,          0,     12.920,  47484.605,    40.480,    -7.617,    23.976,   283.365, 3, 2.400E+01,  1.50,  78,  1.981E-02,  2.875E-02, -9.999E+09, -9.999E+09, -9.999E+09, -9.999E+09, -9.999E+09, -9.999E+09, -9.999E+09, -9.999E+09, -9.999E+09, -9.999E+09, -9.999E+09, -9.999E+09, -9.999E+09, -9.999E+09, -9.999E+09, -9.999E+09, 255
2019-305T02:40:16.784,   1,   5,   1,   120,   4,          0,     12.920,  47484.605,    40.468,    -7.614,    23.976,   282.155, 3, 2.400E+01,  1.50,  78,  1.723E-02,  2.875E-02, -9.999E+09, -9.999E+09, -9.999E+09, -9.999E+09, -9.999E+09, -9.999E+09, -9.999E+09, -9.999E+09, -9.999E+09, -9.999E+09, -9.999E+09, -9.999E+09, -9.999E+09, -9.999E+09, -9.999E+09, -9.999E+09, 255
2019-305T02:42:16.785,   1,   5,   1,   120,   4,          0,     12.920,  47484.605,    40.456,    -7.610,    23.976,   280.945, 3, 2.400E+01,  1.50,  78,  1.933E-02,  2.875E-02, -9.999E+09, -9.999E+09, -9.999E+09, -9.999E+09, -9.999E+09, -9.999E+09, -9.999E+09, -9.999E+09, -9.999E+09, -9.999E+09, -9.999E+09, -9.999E+09, -9.999E+09, -9.999E+09, -9.999E+09, -9.999E+09, 255
2019-305T02:44:16.787,   1,   5,   1,   120,   4,          0,     12.920,  47484.605,    40.443,    -7.607,    23.976,   279.735, 3, 2.400E+01,  1.50,  78,  1.393E-02,  2.875E-02, -9.999E+09, -9.999E+09, -9.999E+09, -9.999E+09, -9.999E+09, -9.999E+09, -9.999E+09, -9.999E+09, -9.999E+09, -9.999E+09, -9.999E+09, -9.999E+09, -9.999E+09, -9.999E+09, -9.999E+09, -9.999E+09, 255
2019-305T02:46:16.788,   1,   5,   1,   120,   4,          0,     12.920,  47484.605,    40.431,    -7.604,    23.975,   278.525, 3, 2.400E+01,  1.50,  78,  1.129E-02,  2.875E-02, -9.999E+09, -9.999E+09, -9.999E+09, -9.999E+09, -9.999E+09, -9.999E+09, -9.999E+09, -9.999E+09, -9.999E+09, -9.999E+09, -9.999E+09, -9.999E+09, -9.999E+09, -9.999E+09, -9.999E+09, -9.999E+09, 255
2019-305T02:48:16.789,   1,   5,   1,   120,   4,          0,     12.920,  47484.605,    40.418,    -7.600,    23.975,   277.315, 3, 2.400E+01,  1.50,  78,  1.547E-02,  2.875E-02, -9.999E+09, -9.999E+09, -9.999E+09, -9.999E+09, -9.999E+09, -9.999E+09, -9.999E+09, -9.999E+09, -9.999E+09, -9.999E+09, -9.999E+09, -9.999E+09, -9.999E+09, -9.999E+09, -9.999E+09, -9.999E+09, 255
2019-305T02:50:16.791,   1,   5,   1,   120,   4,          0,     12.920,  47484.605,    40.406,    -7.597,    23.975,   276.105, 3, 2.400E+01,  1.50,  78,  1.668E-02,  2.875E-02, -9.999E+09, -9.999E+09, -9.999E+09, -9.999E+09, -9.999E+09, -9.999E+09, -9.999E+09, -9.999E+09, -9.999E+09, -9.999E+09, -9.999E+09, -9.999E+09, -9.999E+09, -9.999E+09, -9.999E+09, -9.999E+09, 255
2019-305T02:52:16.792,   1,   5,   1,   120,   4,          0,     12.920,  47484.605,    40.394,    -7.593,    23.975,   274.894, 3, 2.400E+01,  1.50,  78,  1.555E-02,  2.875E-02, -9.999E+09, -9.999E+09, -9.999E+09, -9.999E+09, -9.999E+09, -9.999E+09, -9.999E+09, -9.999E+09, -9.999E+09, -9.999E+09, -9.999E+09, -9.999E+09, -9.999E+09, -9.999E+09, -9.999E+09, -9.999E+09, 255
2019-305T02:54:16.794,   1,   5,   1,   120,   4,          0,     12.920,  47484.605,    40.381,    -7.590,    23.975,   273.684, 3, 2.400E+01,  1.50,  78,  1.984E-02,  2.875E-02, -9.999E+09, -9.999E+09, -9.999E+09, -9.999E+09, -9.999E+09, -9.999E+09, -9.999E+09, -9.999E+09, -9.999E+09, -9.999E+09, -9.999E+09, -9.999E+09, -9.999E+09, -9.999E+09, -9.999E+09, -9.999E+09, 255
2019-305T02:56:16.795,   1,   5,   1,   120,   4,          0,     12.920,  47484.605,    40.369,    -7.587,    23.975,   272.474, 3, 2.400E+01,  1.50,  78,  1.106E-02,  2.875E-02, -9.999E+09, -9.999E+09, -9.999E+09, -9.999E+09, -9.999E+09, -9.999E+09, -9.999E+09, -9.999E+09, -9.999E+09, -9.999E+09, -9.999E+09, -9.999E+09, -9.999E+09, -9.999E+09, -9.999E+09, -9.999E+09, 255
2019-305T02:58:16.796,   1,   5,   1,   120,   4,          0,     12.920,  47484.605,    40.357,    -7.583,    23.975,   271.264, 3, 2.400E+01,  1.50,  78,  1.583E-02,  2.875E-02, -9.999E+09, -9.999E+09, -9.999E+09, -9.999E+09, -9.999E+09, -9.999E+09, -9.999E+09, -9.999E+09, -9.999E+09, -9.999E+09, -9.999E+09, -9.999E+09, -9.999E+09, -9.999E+09, -9.999E+09, -9.999E+09, 255
2019-305T03:00:16.798,   1,   5,   1,   120,   4,          0,     12.920,  47484.605,    40.344,    -7.580,    23.975,   270.054, 3, 2.400E+01,  1.50,  78,  1.827E-02,  2.875E-02, -9.999E+09, -9.999E+09, -9.999E+09, -9.999E+09, -9.999E+09, -9.999E+09, -9.999E+09, -9.999E+09, -9.999E+09, -9.999E+09, -9.999E+09, -9.999E+09, -9.999E+09, -9.999E+09, -9.999E+09, -9.999E+09, 255
2019-305T03:02:16.799,   1,   5,   1,   120,   4,          0,     12.920,  47484.605,    40.332,    -7.576,    23.975,   268.844, 3, 2.400E+01,  1.50,  78,  1.532E-02,  2.875E-02, -9.999E+09, -9.999E+09, -9.999E+09, -9.999E+09, -9.999E+09, -9.999E+09, -9.999E+09, -9.999E+09, -9.999E+09, -9.999E+09, -9.999E+09, -9.999E+09, -9.999E+09, -9.999E+09, -9.999E+09, -9.999E+09, 255
2019-305T03:04:16.801,   1,   5,   1,   120,   4,          0,     12.920,  47484.605,    40.319,    -7.573,    23.975,   267.634, 3, 2.400E+01,  1.50,  78,  1.854E-02,  2.875E-02, -9.999E+09, -9.999E+09, -9.999E+09, -9.999E+09, -9.999E+09, -9.999E+09, -9.999E+09, -9.999E+09, -9.999E+09, -9.999E+09, -9.999E+09, -9.999E+09, -9.999E+09, -9.999E+09, -9.999E+09, -9.999E+09, 255
2019-305T03:06:16.802,   1,   5,   1,   120,   4,          0,     12.920,  47484.605,    40.307,    -7.569,    23.975,   266.424, 3, 2.400E+01,  1.50,  78,  1.878E-02,  2.875E-02, -9.999E+09, -9.999E+09, -9.999E+09, -9.999E+09, -9.999E+09, -9.999E+09, -9.999E+09, -9.999E+09, -9.999E+09, -9.999E+09, -9.999E+09, -9.999E+09, -9.999E+09, -9.999E+09, -9.999E+09, -9.999E+09, 255
2019-305T03:08:16.803,   1,   5,   1,   120,   4,          0,     12.920,  47484.605,    40.295,    -7.566,    23.974,   265.214, 3, 2.400E+01,  1.50,  78,  2.352E-02,  2.875E-02, -9.999E+09, -9.999E+09, -9.999E+09, -9.999E+09, -9.999E+09, -9.999E+09, -9.999E+09, -9.999E+09, -9.999E+09, -9.999E+09, -9.999E+09, -9.999E+09, -9.999E+09, -9.999E+09, -9.999E+09, -9.999E+09, 255
2019-305T03:10:16.805,   1,   5,   1,   120,   4,          0,     12.920,  47484.605,    40.282,    -7.563,    23.974,   264.004, 3, 2.400E+01,  1.50,  78,  2.137E-02,  2.875E-02, -9.999E+09, -9.999E+09, -9.999E+09, -9.999E+09, -9.999E+09, -9.999E+09, -9.999E+09, -9.999E+09, -9.999E+09, -9.999E+09, -9.999E+09, -9.999E+09, -9.999E+09, -9.999E+09, -9.999E+09, -9.999E+09, 255